This is the latest recevied weather packets stored in our database for station/object IT9FBN-3. If no packets are shown the sender has not sent any weather packets the latest 10 day(s).
| Time | Temp. | Humidity | Pressure | Rain* | Wind** | Luminosity | Snow |
|---|---|---|---|---|---|---|---|
| 1777574702 | 17.78° C | 67% | 1016.9 hPa | 0 mm | - | - | - |
| 1777574402 | 17.78° C | 66% | 1016.8 hPa | 0 mm | - | - | - |
| 1777574102 | 17.78° C | 66% | 1016.6 hPa | 0 mm | - | - | - |
| 1777573802 | 17.78° C | 67% | 1016.5 hPa | 0 mm | - | - | - |
| 1777573502 | 17.78° C | 67% | 1016.4 hPa | 0 mm | - | - | - |
| 1777573202 | 18.33° C | 66% | 1016.3 hPa | 0 mm | - | - | - |
| 1777572902 | 18.33° C | 65% | 1016.3 hPa | 0 mm | - | - | - |
| 1777572602 | 18.33° C | 66% | 1016.2 hPa | 0 mm | - | - | - |
| 1777572302 | 18.33° C | 67% | 1016.1 hPa | 0 mm | - | - | - |
| 1777572003 | 18.89° C | 67% | 1016.1 hPa | 0 mm | - | - | - |
| 1777571702 | 18.89° C | 67% | 1016.1 hPa | 0 mm | - | - | - |
| 1777571402 | 18.89° C | 64% | 1015.9 hPa | 0 mm | - | - | - |
| 1777571102 | 18.89° C | 63% | 1015.8 hPa | 0 mm | - | - | - |
| 1777570802 | 18.89° C | 64% | 1015.8 hPa | 0 mm | - | - | - |
| 1777570502 | 19.44° C | 65% | 1015.9 hPa | 0 mm | - | - | - |
| 1777570202 | 19.44° C | 66% | 1015.9 hPa | 0 mm | - | - | - |
| 1777569902 | 19.44° C | 67% | 1015.8 hPa | 0 mm | - | - | - |
| 1777569602 | 19.44° C | 66% | 1015.7 hPa | 0 mm | - | - | - |
| 1777569302 | 19.44° C | 66% | 1015.9 hPa | 0 mm | - | - | - |
| 1777569002 | 20° C | 64% | 1015.7 hPa | 0 mm | - | - | - |
| 1777568702 | 20° C | 64% | 1015.7 hPa | 0 mm | - | - | - |
| 1777568402 | 20.56° C | 64% | 1015.7 hPa | 0 mm | - | - | - |
| 1777568102 | 20.56° C | 66% | 1015.6 hPa | 0 mm | - | - | - |
| 1777567803 | 20.56° C | 69% | 1015.7 hPa | 0 mm | - | - | - |
| 1777567503 | 20.56° C | 71% | 1015.7 hPa | 0 mm | - | - | - |
* Rain latest hour (hover to see other rain measurements)
** Current wind speed in m/s (hover to see current wind gust speed)